User: anonymous   Login
Location: Prairie State College
(41.5244°N, 87.6382°W)
Time: 02:12:38
(UTC-05:00)
Language:

Cosmos 1140 Rocket - Orbit

View from above orbital plane
View from above orbital plane
View from above satellite
View from above satellite

Ground track
Ground track

The orbit data is extracted from the following two-line orbital elements,

1 11574U 79089B   16180.38760603  .00000011  00000-0  11593-4 0  9995
2 11574  74.0686 152.0724 0015293 151.0894 209.1112 14.40576414926199
Epoch (UTC): 28 June 2016 09:18:09
Eccentricity: 0.0015293
inclination: 74.0686°
perigee height: 745 km
apogee height: 767 km
right ascension of ascending node: 152.0724°
argument of perigee: 151.0894°
revolutions per day: 14.40576414
mean anomaly at epoch: 209.1112°
orbit number at epoch: 92619

The dashed part of the orbit path shows where the satellite is in the earth's shadow,  

DLR